Time,TemperatureF,DewpointF,PressureIn,WindDirection,WindDirectionDegrees,WindSpeedMPH,WindSpeedGustMPH,Humidity,HourlyPrecipIn,Conditions,Clouds,dailyrainin,SoftwareType,DateUTC
2013-09-08 00:02:00,75.5,71.4,29.85,ENE,65,0.0,0.0,87,0.00,CLR,SKC,0.00,WeatherDisplay:10.37,2013-09-08 05:02:00,
2013-09-08 00:07:00,75.3,71.2,29.85,ENE,65,0.0,0.0,87,0.00,CLR,SKC,0.00,WeatherDisplay:10.37,2013-09-08 05:07:00,
2013-09-08 00:12:00,75.1,71.0,29.85,ENE,65,0.0,0.0,87,0.00,CLR,SKC,0.00,WeatherDisplay:10.37,2013-09-08 05:12:00,
2013-09-08 00:17:00,74.9,71.1,29.85,ENE,65,0.0,0.0,88,0.00,CLR,SKC,0.00,WeatherDisplay:10.37,2013-09-08 05:17:00,
2013-09-08 00:22:00,74.6,70.8,29.84,ENE,65,0.0,0.0,88,0.00,CLR,SKC,0.00,WeatherDisplay:10.37,2013-09-08 05:22:00,
2013-09-08 00:27:00,74.8,71.0,29.84,ENE,65,0.1,1.1,88,0.00,CLR,SKC,0.00,WeatherDisplay:10.37,2013-09-08 05:27:00,
2013-09-08 00:32:00,74.9,71.1,29.85,NE,49,0.0,0.0,88,0.00,CLR,SKC,0.00,WeatherDisplay:10.37,2013-09-08 05:32:00,
2013-09-08 00:37:00,74.7,70.9,29.85,NE,39,0.0,0.0,88,0.00,CLR,SKC,0.00,WeatherDisplay:10.37,2013-09-08 05:37:00,
2013-09-08 00:42:00,74.5,71.0,29.85,NE,40,0.5,1.1,89,0.00,CLR,SKC,0.00,WeatherDisplay:10.37,2013-09-08 05:42:00,
2013-09-08 00:47:00,74.5,71.0,29.85,NE,34,0.3,1.1,89,0.00,CLR,SKC,0.00,WeatherDisplay:10.37,2013-09-08 05:47:00,
2013-09-08 00:52:00,74.5,71.0,29.85,NE,34,0.0,0.0,89,0.00,CLR,SKC,0.00,WeatherDisplay:10.37,2013-09-08 05:52:00,
2013-09-08 00:57:00,74.5,70.7,29.85,NE,34,0.0,0.0,88,0.00,CLR,SKC,0.00,WeatherDisplay:10.37,2013-09-08 05:57:00,
2013-09-08 01:02:00,74.3,70.8,29.85,NE,34,0.0,0.0,89,0.00,CLR,SKC,0.00,WeatherDisplay:10.37,2013-09-08 06:02:00,
2013-09-08 01:07:00,74.1,70.6,29.85,NE,34,0.0,0.0,89,0.00,CLR,SKC,0.00,WeatherDisplay:10.37,2013-09-08 06:07:00,
2013-09-08 01:12:00,73.9,70.8,29.85,NE,34,0.0,0.0,90,0.00,CLR,SKC,0.00,WeatherDisplay:10.37,2013-09-08 06:12:00,
2013-09-08 01:17:00,73.9,70.8,29.85,NE,34,0.0,0.0,90,0.00,CLR,SKC,0.00,WeatherDisplay:10.37,2013-09-08 06:17:00,
2013-09-08 01:22:00,73.7,70.6,29.85,NE,34,0.0,0.0,90,0.00,CLR,SKC,0.00,WeatherDisplay:10.37,2013-09-08 06:22:00,
2013-09-08 01:27:00,73.6,70.5,29.85,NE,34,0.0,0.0,90,0.00,CLR,SKC,0.00,WeatherDisplay:10.37,2013-09-08 06:27:00,
2013-09-08 01:32:00,73.4,70.6,29.85,NE,34,0.0,0.0,91,0.00,CLR,SKC,0.00,WeatherDisplay:10.37,2013-09-08 06:32:00,
2013-09-08 01:37:00,73.2,70.4,29.85,NE,34,0.0,0.0,91,0.00,CLR,SKC,0.00,WeatherDisplay:10.37,2013-09-08 06:37:00,
2013-09-08 01:42:00,73.1,70.3,29.85,NE,34,0.0,0.0,91,0.00,CLR,SKC,0.00,WeatherDisplay:10.37,2013-09-08 06:42:00,
2013-09-08 01:47:00,72.9,70.4,29.85,NE,34,0.0,0.0,92,0.00,CLR,SKC,0.00,WeatherDisplay:10.37,2013-09-08 06:47:00,
2013-09-08 01:52:00,73.0,70.5,29.85,NE,34,0.0,0.0,92,0.00,CLR,SKC,0.00,WeatherDisplay:10.37,2013-09-08 06:52:00,
2013-09-08 01:58:00,73.2,70.7,29.85,NE,34,0.0,0.0,92,0.00,CLR,SKC,0.00,WeatherDisplay:10.37,2013-09-08 06:58:00,
2013-09-08 02:03:00,73.2,70.7,29.85,NE,34,0.0,0.0,92,0.00,CLR,SKC,0.00,WeatherDisplay:10.37,2013-09-08 07:03:00,
2013-09-08 02:08:00,73.1,70.3,29.85,NNE,32,0.0,0.0,91,0.00,CLR,SKC,0.00,WeatherDisplay:10.37,2013-09-08 07:08:00,
2013-09-08 02:13:00,73.1,70.6,29.85,NNE,32,0.0,0.0,92,0.00,CLR,SKC,0.00,WeatherDisplay:10.37,2013-09-08 07:13:00,
2013-09-08 02:18:00,73.0,70.5,29.85,NNE,33,0.0,0.0,92,0.00,CLR,SKC,0.00,WeatherDisplay:10.37,2013-09-08 07:18:00,
2013-09-08 02:23:00,73.1,70.6,29.85,NNE,32,0.0,0.0,92,0.00,CLR,SKC,0.00,WeatherDisplay:10.37,2013-09-08 07:23:00,
2013-09-08 02:28:00,73.1,70.6,29.85,NNE,33,0.0,0.0,92,0.00,CLR,SKC,0.00,WeatherDisplay:10.37,2013-09-08 07:28:00,
2013-09-08 02:33:00,73.1,70.6,29.85,NNE,33,0.0,0.0,92,0.00,CLR,SKC,0.00,WeatherDisplay:10.37,2013-09-08 07:33:00,
2013-09-08 02:38:00,73.0,70.5,29.85,NNE,33,0.0,0.0,92,0.00,CLR,SKC,0.00,WeatherDisplay:10.37,2013-09-08 07:38:00,
2013-09-08 02:43:00,72.9,70.4,29.85,NNE,32,0.0,0.0,92,0.00,CLR,SKC,0.00,WeatherDisplay:10.37,2013-09-08 07:43:00,
2013-09-08 02:48:00,72.7,70.2,29.85,NNE,33,0.0,0.0,92,0.00,CLR,SKC,0.00,WeatherDisplay:10.37,2013-09-08 07:48:00,
2013-09-08 02:53:00,72.6,70.5,29.84,NNE,33,0.0,0.0,93,0.00,CLR,SKC,0.00,WeatherDisplay:10.37,2013-09-08 07:53:00,
2013-09-08 02:58:00,72.6,70.5,29.85,NNE,33,0.0,0.0,93,0.00,CLR,SKC,0.00,WeatherDisplay:10.37,2013-09-08 07:58:00,
2013-09-08 03:03:00,72.5,70.4,29.84,NNE,29,0.0,0.0,93,0.00,CLR,SKC,0.00,WeatherDisplay:10.37,2013-09-08 08:03:00,
2013-09-08 03:08:00,72.5,70.4,29.84,NNE,30,0.0,0.0,93,0.00,CLR,SKC,0.00,WeatherDisplay:10.37,2013-09-08 08:08:00,
2013-09-08 03:13:00,72.3,70.2,29.84,North,11,0.0,0.0,93,0.00,CLR,SKC,0.00,WeatherDisplay:10.37,2013-09-08 08:13:00,
2013-09-08 03:18:00,72.3,70.2,29.84,North,9,0.0,0.0,93,0.00,CLR,SKC,0.00,WeatherDisplay:10.37,2013-09-08 08:18:00,
2013-09-08 03:23:00,72.2,70.1,29.84,North,8,0.0,0.0,93,0.00,CLR,SKC,0.00,WeatherDisplay:10.37,2013-09-08 08:23:00,
2013-09-08 03:28:00,72.1,70.0,29.84,North,360,0.0,0.0,93,0.00,CLR,SKC,0.00,WeatherDisplay:10.37,2013-09-08 08:28:00,
2013-09-08 03:33:00,72.0,69.9,29.84,North,360,0.0,0.0,93,0.00,CLR,SKC,0.00,WeatherDisplay:10.37,2013-09-08 08:33:00,
2013-09-08 03:38:00,71.9,70.1,29.84,North,357,0.0,0.0,94,0.00,CLR,SKC,0.00,WeatherDisplay:10.37,2013-09-08 08:38:00,
2013-09-08 03:43:00,71.9,70.1,29.84,North,357,0.0,0.0,94,0.00,CLR,SKC,0.00,WeatherDisplay:10.37,2013-09-08 08:43:00,
2013-09-08 03:48:00,71.8,70.0,29.84,North,357,0.0,0.0,94,0.00,CLR,SKC,0.00,WeatherDisplay:10.37,2013-09-08 08:48:00,
2013-09-08 03:53:00,71.6,69.8,29.84,North,357,0.0,0.0,94,0.00,CLR,SKC,0.00,WeatherDisplay:10.37,2013-09-08 08:53:00,
2013-09-08 03:58:00,71.5,69.7,29.84,North,357,0.0,0.0,94,0.00,CLR,SKC,0.00,WeatherDisplay:10.37,2013-09-08 08:58:00,
2013-09-08 04:03:00,71.4,69.9,29.84,North,356,0.0,0.0,95,0.00,CLR,SKC,0.00,WeatherDisplay:10.37,2013-09-08 09:03:00,
2013-09-08 04:08:00,71.4,69.9,29.84,North,356,0.0,0.0,95,0.00,CLR,SKC,0.00,WeatherDisplay:10.37,2013-09-08 09:08:00,
2013-09-08 04:13:00,71.5,70.0,29.84,North,357,0.0,0.0,95,0.00,CLR,SKC,0.00,WeatherDisplay:10.37,2013-09-08 09:13:00,
2013-09-08 04:18:00,71.5,70.0,29.84,North,356,0.0,0.0,95,0.00,CLR,SKC,0.00,WeatherDisplay:10.37,2013-09-08 09:18:00,
2013-09-08 04:23:00,71.4,69.9,29.84,North,357,0.0,0.0,95,0.00,CLR,SKC,0.00,WeatherDisplay:10.37,2013-09-08 09:23:00,
2013-09-08 04:28:00,71.3,69.8,29.83,North,357,0.0,0.0,95,0.00,CLR,SKC,0.00,WeatherDisplay:10.37,2013-09-08 09:28:00,
2013-09-08 04:33:00,71.2,69.7,29.83,North,4,0.0,0.0,95,0.00,CLR,SKC,0.00,WeatherDisplay:10.37,2013-09-08 09:33:00,
2013-09-08 04:38:00,71.1,69.6,29.83,North,4,0.0,0.0,95,0.00,CLR,SKC,0.00,WeatherDisplay:10.37,2013-09-08 09:38:00,
2013-09-08 04:43:00,71.1,69.6,29.84,North,5,0.0,0.0,95,0.00,CLR,SKC,0.00,WeatherDisplay:10.37,2013-09-08 09:43:00,
2013-09-08 04:48:00,71.1,69.6,29.84,North,4,0.0,0.0,95,0.00,CLR,SKC,0.00,WeatherDisplay:10.37,2013-09-08 09:48:00,
2013-09-08 04:53:00,71.1,69.6,29.84,North,6,0.0,0.0,95,0.00,CLR,SKC,0.00,WeatherDisplay:10.37,2013-09-08 09:53:00,
2013-09-08 04:58:00,71.0,69.5,29.84,North,8,0.0,0.0,95,0.00,CLR,SKC,0.00,WeatherDisplay:10.37,2013-09-08 09:58:00,
2013-09-08 05:03:00,70.9,69.4,29.84,North,7,0.0,0.0,95,0.00,CLR,SKC,0.00,WeatherDisplay:10.37,2013-09-08 10:03:00,
2013-09-08 05:08:00,70.9,69.4,29.83,North,8,0.0,0.0,95,0.00,CLR,SKC,0.00,WeatherDisplay:10.37,2013-09-08 10:08:00,
2013-09-08 05:13:00,70.9,69.4,29.83,North,8,0.0,0.0,95,0.00,CLR,SKC,0.00,WeatherDisplay:10.37,2013-09-08 10:13:00,
2013-09-08 05:18:00,70.9,69.4,29.83,North,8,0.0,0.0,95,0.00,CLR,SKC,0.00,WeatherDisplay:10.37,2013-09-08 10:18:00,
2013-09-08 05:23:00,70.8,69.3,29.83,NNE,13,0.0,0.0,95,0.00,CLR,SKC,0.00,WeatherDisplay:10.37,2013-09-08 10:23:00,
2013-09-08 05:28:00,70.8,69.6,29.83,NNE,13,0.0,0.0,96,0.00,CLR,SKC,0.00,WeatherDisplay:10.37,2013-09-08 10:28:00,
2013-09-08 05:33:00,70.8,69.3,29.82,NNE,13,0.0,0.0,95,0.00,CLR,SKC,0.00,WeatherDisplay:10.37,2013-09-08 10:33:00,
2013-09-08 05:38:00,70.8,69.3,29.81,NNE,13,0.0,0.0,95,0.00,CLR,SKC,0.00,WeatherDisplay:10.37,2013-09-08 10:38:00,
2013-09-08 05:43:00,70.8,69.3,29.81,SSE,149,0.0,0.0,95,0.00,CLR,SKC,0.00,WeatherDisplay:10.37,2013-09-08 10:43:00,
2013-09-08 05:48:00,70.8,69.3,29.81,SE,128,0.9,1.1,95,0.00,CLR,SKC,0.00,WeatherDisplay:10.37,2013-09-08 10:48:00,
2013-09-08 05:53:00,70.9,69.4,29.81,East,85,0.4,1.1,95,0.00,CLR,SKC,0.00,WeatherDisplay:10.37,2013-09-08 10:53:00,
2013-09-08 05:58:00,70.9,69.4,29.81,NNE,18,0.0,0.0,95,0.00,CLR,SKC,0.00,WeatherDisplay:10.37,2013-09-08 10:58:00,
2013-09-08 06:03:00,70.8,69.3,29.82,NNE,19,0.0,0.0,95,0.00,CLR,SKC,0.00,WeatherDisplay:10.37,2013-09-08 11:03:00,
2013-09-08 06:08:00,70.7,69.2,29.82,NNE,19,0.0,0.0,95,0.00,CLR,SKC,0.00,WeatherDisplay:10.37,2013-09-08 11:08:00,
2013-09-08 06:13:00,70.6,69.1,29.82,NNE,15,0.1,1.1,95,0.00,CLR,SKC,0.00,WeatherDisplay:10.37,2013-09-08 11:13:00,
2013-09-08 06:18:00,70.5,69.3,29.82,NNE,15,0.0,1.1,96,0.00,CLR,SKC,0.00,WeatherDisplay:10.37,2013-09-08 11:18:00,
2013-09-08 06:23:00,70.7,69.5,29.81,NNE,17,0.2,1.1,96,0.00,CLR,SKC,0.00,WeatherDisplay:10.37,2013-09-08 11:23:00,
2013-09-08 06:28:00,70.8,69.6,29.81,ENE,69,0.0,0.0,96,0.00,CLR,SKC,0.00,WeatherDisplay:10.37,2013-09-08 11:28:00,
2013-09-08 06:33:00,70.9,69.7,29.81,East,96,0.0,0.0,96,0.00,CLR,SKC,0.00,WeatherDisplay:10.37,2013-09-08 11:33:00,
2013-09-08 06:38:00,71.1,69.6,29.81,East,96,0.1,1.1,95,0.00,CLR,SKC,0.00,WeatherDisplay:10.37,2013-09-08 11:38:00,
2013-09-08 06:43:00,71.2,69.7,29.81,East,93,0.0,0.0,95,0.00,CLR,SKC,0.00,WeatherDisplay:10.37,2013-09-08 11:43:00,
2013-09-08 06:48:00,71.1,69.6,29.81,NE,44,0.0,0.0,95,0.00,CLR,SKC,0.00,WeatherDisplay:10.37,2013-09-08 11:48:00,
2013-09-08 06:53:00,71.1,69.6,29.81,NNE,30,0.3,1.1,95,0.00,CLR,SKC,0.00,WeatherDisplay:10.37,2013-09-08 11:53:00,
2013-09-08 06:58:00,71.0,69.5,29.81,ENE,57,0.1,1.1,95,0.00,CLR,SKC,0.00,WeatherDisplay:10.37,2013-09-08 11:58:00,
2013-09-08 07:03:00,71.0,69.5,29.81,NE,56,0.0,0.0,95,0.00,CLR,SKC,0.00,WeatherDisplay:10.37,2013-09-08 12:03:00,
2013-09-08 07:08:00,71.1,69.6,29.81,ENE,77,0.8,1.1,95,0.00,CLR,SKC,0.00,WeatherDisplay:10.37,2013-09-08 12:08:00,
2013-09-08 07:13:00,71.1,69.6,29.82,NE,46,1.3,2.3,95,0.00,CLR,SKC,0.00,WeatherDisplay:10.37,2013-09-08 12:13:00,
2013-09-08 07:18:00,71.2,69.7,29.82,NE,37,0.3,1.1,95,0.00,CLR,SKC,0.00,WeatherDisplay:10.37,2013-09-08 12:18:00,
2013-09-08 07:23:00,71.3,69.8,29.82,NE,46,1.6,3.0,95,0.00,CLR,SKC,0.00,WeatherDisplay:10.37,2013-09-08 12:23:00,
2013-09-08 07:28:00,71.5,70.0,29.82,NE,44,2.0,3.5,95,0.00,CLR,SKC,0.00,WeatherDisplay:10.37,2013-09-08 12:28:00,
2013-09-08 07:33:00,71.8,70.0,29.82,ENE,71,2.5,3.5,94,0.00,CLR,SKC,0.00,WeatherDisplay:10.37,2013-09-08 12:33:00,
2013-09-08 07:38:00,72.1,70.3,29.81,ENE,68,2.2,3.5,94,0.00,CLR,SKC,0.00,WeatherDisplay:10.37,2013-09-08 12:38:00,
2013-09-08 07:44:00,72.3,70.2,29.82,ENE,66,2.2,3.5,93,0.00,CLR,SKC,0.00,WeatherDisplay:10.37,2013-09-08 12:44:00,
2013-09-08 07:48:00,72.5,70.4,29.82,ENE,62,3.1,4.6,93,0.00,CLR,SKC,0.00,WeatherDisplay:10.37,2013-09-08 12:48:00,
2013-09-08 07:54:00,72.7,70.2,29.82,East,95,3.3,4.6,92,0.00,CLR,SKC,0.00,WeatherDisplay:10.37,2013-09-08 12:54:00,
2013-09-08 07:59:00,73.0,70.5,29.81,ESE,103,1.7,4.0,92,0.00,CLR,SKC,0.00,WeatherDisplay:10.37,2013-09-08 12:59:00,
2013-09-08 08:04:00,73.2,70.4,29.82,ENE,68,2.8,3.5,91,0.00,CLR,SKC,0.00,WeatherDisplay:10.37,2013-09-08 13:04:00,
2013-09-08 08:09:00,73.5,70.7,29.82,ENE,73,0.6,3.5,91,0.00,CLR,SKC,0.00,WeatherDisplay:10.37,2013-09-08 13:09:00,
2013-09-08 08:14:00,73.9,70.8,29.82,ENE,70,1.3,2.3,90,0.00,CLR,SKC,0.00,WeatherDisplay:10.37,2013-09-08 13:14:00,
2013-09-08 08:19:00,74.0,70.9,29.82,ENE,60,1.3,2.3,90,0.00,CLR,SKC,0.00,WeatherDisplay:10.37,2013-09-08 13:19:00,
2013-09-08 08:24:00,74.2,70.7,29.82,NE,36,3.1,3.5,89,0.00,CLR,SKC,0.00,WeatherDisplay:10.37,2013-09-08 13:24:00,
2013-09-08 08:29:00,74.1,70.6,29.82,East,79,1.6,3.5,89,0.00,CLR,SKC,0.00,WeatherDisplay:10.37,2013-09-08 13:29:00,
2013-09-08 08:34:00,74.3,70.8,29.82,ENE,65,1.9,3.5,89,0.00,CLR,SKC,0.00,WeatherDisplay:10.37,2013-09-08 13:34:00,
2013-09-08 08:39:00,74.6,71.1,29.82,NE,52,0.9,2.3,89,0.00,CLR,SKC,0.00,WeatherDisplay:10.37,2013-09-08 13:39:00,
2013-09-08 08:44:00,75.0,71.2,29.82,ENE,63,2.8,4.6,88,0.00,CLR,SKC,0.00,WeatherDisplay:10.37,2013-09-08 13:44:00,
2013-09-08 08:49:00,75.1,71.0,29.82,ENE,63,2.9,3.5,87,0.00,CLR,SKC,0.00,WeatherDisplay:10.37,2013-09-08 13:49:00,
2013-09-08 08:54:00,75.3,71.2,29.82,ESE,122,2.6,4.0,87,0.00,CLR,SKC,0.00,WeatherDisplay:10.37,2013-09-08 13:54:00,
2013-09-08 08:59:00,75.5,71.4,29.82,East,94,2.0,3.5,87,0.00,CLR,SKC,0.00,WeatherDisplay:10.37,2013-09-08 13:59:00,
2013-09-08 09:04:00,75.7,71.6,29.82,ENE,78,2.4,3.5,87,0.00,CLR,SKC,0.00,WeatherDisplay:10.37,2013-09-08 14:04:00,
2013-09-08 09:09:00,75.7,71.6,29.82,East,89,1.7,3.5,87,0.00,CLR,SKC,0.00,WeatherDisplay:10.37,2013-09-08 14:09:00,
2013-09-08 09:14:00,75.9,71.4,29.82,East,88,3.8,5.0,86,0.00,CLR,SKC,0.00,WeatherDisplay:10.37,2013-09-08 14:14:00,
2013-09-08 09:19:00,75.9,71.4,29.82,ESE,108,3.4,5.8,86,0.00,CLR,SKC,0.00,WeatherDisplay:10.37,2013-09-08 14:19:00,
2013-09-08 09:24:00,75.9,71.4,29.83,NE,43,3.7,5.0,86,0.00,CLR,SKC,0.00,WeatherDisplay:10.37,2013-09-08 14:24:00,
2013-09-08 09:29:00,75.9,71.4,29.83,East,94,4.1,4.6,86,0.00,CLR,SKC,0.00,WeatherDisplay:10.37,2013-09-08 14:29:00,
2013-09-08 09:34:00,76.1,71.6,29.83,ENE,75,2.4,3.5,86,0.00,CLR,SKC,0.00,WeatherDisplay:10.37,2013-09-08 14:34:00,
2013-09-08 09:39:00,76.4,71.6,29.83,NE,51,2.8,3.5,85,0.00,CLR,SKC,0.00,WeatherDisplay:10.37,2013-09-08 14:39:00,
2013-09-08 09:44:00,76.7,71.8,29.83,ENE,65,3.2,5.8,85,0.00,CLR,SKC,0.00,WeatherDisplay:10.37,2013-09-08 14:44:00,
2013-09-08 09:49:00,77.2,72.0,29.84,NE,41,2.6,4.6,84,0.00,CLR,SKC,0.00,WeatherDisplay:10.37,2013-09-08 14:49:00,
2013-09-08 09:54:00,77.1,71.9,29.84,ENE,58,2.8,6.9,84,0.00,CLR,SKC,0.00,WeatherDisplay:10.37,2013-09-08 14:54:00,
2013-09-08 09:59:00,77.0,71.8,29.84,ENE,58,4.0,5.0,84,0.00,CLR,SKC,0.00,WeatherDisplay:10.37,2013-09-08 14:59:00,
2013-09-08 10:04:00,76.9,71.7,29.84,NE,40,4.5,8.1,84,0.00,CLR,SKC,0.00,WeatherDisplay:10.37,2013-09-08 15:04:00,
2013-09-08 10:09:00,77.0,72.1,29.84,NNE,15,4.5,8.0,85,0.00,CLR,SKC,0.00,WeatherDisplay:10.37,2013-09-08 15:09:00,
2013-09-08 10:14:00,77.0,72.1,29.84,North,354,2.4,3.5,85,0.00,CLR,SKC,0.00,WeatherDisplay:10.37,2013-09-08 15:14:00,
2013-09-08 10:19:00,77.0,72.1,29.84,NE,51,2.5,4.6,85,0.00,CLR,SKC,0.00,WeatherDisplay:10.37,2013-09-08 15:19:00,
2013-09-08 10:24:00,77.3,72.4,29.84,ENE,77,2.9,5.8,85,0.00,CLR,SKC,0.00,WeatherDisplay:10.37,2013-09-08 15:24:00,
2013-09-08 10:29:00,77.6,72.7,29.84,East,83,4.4,5.8,85,0.00,CLR,SKC,0.00,WeatherDisplay:10.37,2013-09-08 15:29:00,
2013-09-08 10:34:00,77.9,72.7,29.84,NE,49,4.6,5.8,84,0.00,CLR,SKC,0.00,WeatherDisplay:10.37,2013-09-08 15:34:00,
2013-09-08 10:39:00,78.3,73.1,29.84,East,94,3.8,9.0,84,0.00,CLR,SKC,0.00,WeatherDisplay:10.37,2013-09-08 15:39:00,
2013-09-08 10:44:00,78.5,72.5,29.84,ESE,113,6.8,9.2,82,0.00,CLR,SKC,0.00,WeatherDisplay:10.37,2013-09-08 15:44:00,
2013-09-08 10:49:00,78.6,72.6,29.84,ESE,110,4.1,5.8,82,0.00,CLR,SKC,0.00,WeatherDisplay:10.37,2013-09-08 15:49:00,
2013-09-08 10:54:00,79.2,73.2,29.84,NE,52,3.0,4.0,82,0.00,CLR,SKC,0.00,WeatherDisplay:10.37,2013-09-08 15:54:00,
2013-09-08 10:59:00,79.4,73.1,29.84,ENE,63,4.3,5.8,81,0.00,CLR,SKC,0.00,WeatherDisplay:10.37,2013-09-08 15:59:00,
2013-09-08 11:04:00,79.8,73.1,29.83,ESE,115,2.9,5.0,80,0.00,CLR,SKC,0.00,WeatherDisplay:10.37,2013-09-08 16:04:00,
2013-09-08 11:09:00,80.2,73.1,29.84,East,94,3.0,4.6,79,0.00,CLR,SKC,0.00,WeatherDisplay:10.37,2013-09-08 16:09:00,
2013-09-08 11:14:00,80.5,73.0,29.83,NE,53,5.8,10.4,78,0.00,CLR,SKC,0.00,WeatherDisplay:10.37,2013-09-08 16:14:00,
2013-09-08 11:19:00,80.8,73.7,29.83,ESE,107,1.8,8.0,79,0.00,CLR,SKC,0.00,WeatherDisplay:10.37,2013-09-08 16:19:00,
2013-09-08 11:24:00,81.1,73.6,29.83,ENE,74,3.6,5.8,78,0.00,CLR,SKC,0.00,WeatherDisplay:10.37,2013-09-08 16:24:00,
2013-09-08 11:29:00,81.2,73.3,29.83,NE,53,5.5,8.1,77,0.00,CLR,SKC,0.00,WeatherDisplay:10.37,2013-09-08 16:29:00,
2013-09-08 11:34:00,81.6,73.7,29.83,ENE,77,5.4,6.9,77,0.00,CLR,SKC,0.00,WeatherDisplay:10.37,2013-09-08 16:34:00,
2013-09-08 11:39:00,81.9,73.2,29.83,East,94,6.0,9.2,75,0.00,CLR,SKC,0.00,WeatherDisplay:10.37,2013-09-08 16:39:00,
2013-09-08 11:44:00,82.1,73.4,29.82,ESE,109,6.9,10.4,75,0.00,CLR,SKC,0.00,WeatherDisplay:10.37,2013-09-08 16:44:00,
2013-09-08 11:49:00,82.8,73.7,29.82,ENE,63,7.1,11.5,74,0.00,CLR,SKC,0.00,WeatherDisplay:10.37,2013-09-08 16:49:00,
2013-09-08 11:54:00,83.2,74.0,29.82,ENE,69,4.3,9.0,74,0.00,CLR,SKC,0.00,WeatherDisplay:10.37,2013-09-08 16:54:00,
2013-09-08 11:59:00,83.4,73.0,29.82,ENE,66,9.9,14.0,71,0.00,CLR,SKC,0.00,WeatherDisplay:10.37,2013-09-08 16:59:00,
2013-09-08 12:04:00,83.2,72.8,29.82,ENE,76,5.7,11.0,71,0.00,CLR,SKC,0.00,WeatherDisplay:10.37,2013-09-08 17:04:00,
2013-09-08 12:09:00,83.1,73.1,29.82,East,94,7.8,11.5,72,0.00,CLR,SKC,0.00,WeatherDisplay:10.37,2013-09-08 17:09:00,
2013-09-08 12:14:00,83.2,72.8,29.81,East,79,9.3,12.0,71,0.00,CLR,SKC,0.00,WeatherDisplay:10.37,2013-09-08 17:14:00,
2013-09-08 12:19:00,83.4,73.0,29.81,ENE,77,6.7,11.0,71,0.00,CLR,SKC,0.00,WeatherDisplay:10.37,2013-09-08 17:19:00,
2013-09-08 12:24:00,83.7,73.3,29.81,ESE,104,6.9,9.2,71,0.00,CLR,SKC,0.00,WeatherDisplay:10.37,2013-09-08 17:24:00,
2013-09-08 12:29:00,83.8,73.0,29.81,ESE,117,7.8,11.5,70,0.00,CLR,SKC,0.00,WeatherDisplay:10.37,2013-09-08 17:29:00,
2013-09-08 12:34:00,84.2,72.9,29.81,ENE,63,6.7,9.2,69,0.00,CLR,SKC,0.00,WeatherDisplay:10.37,2013-09-08 17:34:00,
2013-09-08 12:39:00,84.2,72.9,29.81,ESE,112,7.4,13.8,69,0.00,CLR,SKC,0.00,WeatherDisplay:10.37,2013-09-08 17:39:00,
2013-09-08 12:44:00,84.8,73.5,29.81,ESE,107,4.4,9.2,69,0.00,CLR,SKC,0.00,WeatherDisplay:10.37,2013-09-08 17:44:00,
2013-09-08 12:49:00,85.2,73.0,29.81,East,89,7.8,11.0,67,0.00,CLR,SKC,0.00,WeatherDisplay:10.37,2013-09-08 17:49:00,
2013-09-08 12:54:00,84.9,73.2,29.81,ENE,75,7.1,10.4,68,0.00,CLR,SKC,0.00,WeatherDisplay:10.37,2013-09-08 17:54:00,
2013-09-08 12:59:00,85.2,73.4,29.81,ENE,73,6.1,8.1,68,0.00,CLR,SKC,0.00,WeatherDisplay:10.37,2013-09-08 17:59:00,
2013-09-08 13:04:00,85.5,73.7,29.80,ESE,104,4.7,10.4,68,0.00,CLR,SKC,0.00,WeatherDisplay:10.37,2013-09-08 18:04:00,
2013-09-08 13:09:00,86.1,73.9,29.80,SE,128,6.0,9.2,67,0.00,CLR,SKC,0.00,WeatherDisplay:10.37,2013-09-08 18:09:00,
2013-09-08 13:14:00,86.2,74.0,29.80,East,96,5.7,10.4,67,0.00,CLR,SKC,0.00,WeatherDisplay:10.37,2013-09-08 18:14:00,
2013-09-08 13:19:00,86.2,74.0,29.80,SE,124,6.1,11.5,67,0.00,CLR,SKC,0.00,WeatherDisplay:10.37,2013-09-08 18:19:00,
2013-09-08 13:24:00,86.2,74.0,29.80,East,98,4.7,10.4,67,0.00,CLR,SKC,0.00,WeatherDisplay:10.37,2013-09-08 18:24:00,
2013-09-08 13:29:00,86.3,73.6,29.79,East,79,6.8,11.5,66,0.00,CLR,SKC,0.00,WeatherDisplay:10.37,2013-09-08 18:29:00,
2013-09-08 13:34:00,86.4,74.1,29.79,East,94,6.3,11.5,67,0.00,CLR,SKC,0.00,WeatherDisplay:10.37,2013-09-08 18:34:00,
2013-09-08 13:39:00,86.5,73.8,29.79,SE,143,6.3,9.2,66,0.00,CLR,SKC,0.00,WeatherDisplay:10.37,2013-09-08 18:39:00,
2013-09-08 13:44:00,87.1,74.8,29.79,ESE,113,4.3,8.1,67,0.00,CLR,SKC,0.00,WeatherDisplay:10.37,2013-09-08 18:44:00,
2013-09-08 13:50:00,87.4,75.1,29.78,ENE,72,4.9,8.1,67,0.00,CLR,SKC,0.00,WeatherDisplay:10.37,2013-09-08 18:50:00,
2013-09-08 13:55:00,87.6,74.4,29.78,SSE,152,6.3,9.2,65,0.00,CLR,SKC,0.00,WeatherDisplay:10.37,2013-09-08 18:55:00,
2013-09-08 14:00:00,87.2,73.5,29.78,ESE,113,5.9,9.2,64,0.00,CLR,SKC,0.00,WeatherDisplay:10.37,2013-09-08 19:00:00,
2013-09-08 14:05:00,87.4,74.6,29.78,SE,129,4.7,8.1,66,0.00,CLR,SKC,0.00,WeatherDisplay:10.37,2013-09-08 19:05:00,
2013-09-08 14:10:00,88.2,74.5,29.78,ENE,63,4.5,6.0,64,0.00,CLR,SKC,0.00,WeatherDisplay:10.37,2013-09-08 19:10:00,
2013-09-08 14:15:00,88.4,74.2,29.78,SE,139,6.4,10.4,63,0.00,CLR,SKC,0.00,WeatherDisplay:10.37,2013-09-08 19:15:00,
2013-09-08 14:20:00,88.2,74.0,29.78,East,91,4.7,8.1,63,0.00,CLR,SKC,0.00,WeatherDisplay:10.37,2013-09-08 19:20:00,
2013-09-08 14:25:00,87.8,74.1,29.78,SE,142,3.6,8.1,64,0.00,CLR,SKC,0.00,WeatherDisplay:10.37,2013-09-08 19:25:00,
2013-09-08 14:30:00,87.6,73.9,29.78,SE,127,4.3,6.0,64,0.00,CLR,SKC,0.00,WeatherDisplay:10.37,2013-09-08 19:30:00,
2013-09-08 14:35:00,87.9,74.2,29.78,East,91,5.7,7.0,64,0.00,CLR,SKC,0.00,WeatherDisplay:10.37,2013-09-08 19:35:00,
2013-09-08 14:40:00,88.0,73.3,29.78,East,89,6.9,11.5,62,0.00,CLR,SKC,0.00,WeatherDisplay:10.37,2013-09-08 19:40:00,
2013-09-08 14:45:00,88.2,74.5,29.77,NE,51,5.1,8.1,64,0.00,CLR,SKC,0.00,WeatherDisplay:10.37,2013-09-08 19:45:00,
2013-09-08 14:50:00,88.4,74.2,29.77,East,101,5.1,8.1,63,0.00,CLR,SKC,0.00,WeatherDisplay:10.37,2013-09-08 19:50:00,
2013-09-08 14:55:00,88.8,74.6,29.77,East,83,3.9,5.8,63,0.00,CLR,SKC,0.00,WeatherDisplay:10.37,2013-09-08 19:55:00,
2013-09-08 15:00:00,88.8,74.6,29.77,SE,131,6.8,6.9,63,0.00,CLR,SKC,0.00,WeatherDisplay:10.37,2013-09-08 20:00:00,
2013-09-08 15:05:00,89.1,74.9,29.76,ENE,58,4.4,11.0,63,0.00,CLR,SKC,0.00,WeatherDisplay:10.37,2013-09-08 20:05:00,
2013-09-08 15:10:00,89.7,74.9,29.76,SE,135,4.1,8.0,62,0.00,CLR,SKC,0.00,WeatherDisplay:10.37,2013-09-08 20:10:00,
2013-09-08 15:15:00,89.6,74.9,29.76,NE,55,4.9,9.2,62,0.00,CLR,SKC,0.00,WeatherDisplay:10.37,2013-09-08 20:15:00,
2013-09-08 15:20:00,89.6,73.9,29.76,ENE,63,5.0,9.2,60,0.00,CLR,SKC,0.00,WeatherDisplay:10.37,2013-09-08 20:20:00,
2013-09-08 15:25:00,90.1,74.8,29.76,East,94,4.5,9.2,61,0.00,CLR,SKC,0.00,WeatherDisplay:10.37,2013-09-08 20:25:00,
2013-09-08 15:30:00,90.0,75.2,29.76,ESE,113,4.2,5.8,62,0.00,CLR,SKC,0.00,WeatherDisplay:10.37,2013-09-08 20:30:00,
2013-09-08 15:35:00,90.4,75.1,29.76,ENE,76,3.3,5.0,61,0.00,CLR,SKC,0.00,WeatherDisplay:10.37,2013-09-08 20:35:00,
2013-09-08 15:40:00,90.0,74.2,29.76,ESE,118,4.6,9.2,60,0.00,CLR,SKC,0.00,WeatherDisplay:10.37,2013-09-08 20:40:00,
2013-09-08 15:45:00,90.1,74.8,29.76,East,89,6.8,8.1,61,0.00,CLR,SKC,0.00,WeatherDisplay:10.37,2013-09-08 20:45:00,
2013-09-08 15:50:00,90.0,75.2,29.75,ENE,76,5.7,8.0,62,0.00,CLR,SKC,0.00,WeatherDisplay:10.37,2013-09-08 20:50:00,
2013-09-08 15:55:00,90.1,75.3,29.75,East,101,4.7,8.0,62,0.00,CLR,SKC,0.00,WeatherDisplay:10.37,2013-09-08 20:55:00,
2013-09-08 16:00:00,90.2,75.4,29.75,ENE,72,3.9,8.0,62,0.00,CLR,SKC,0.00,WeatherDisplay:10.37,2013-09-08 21:00:00,
2013-09-08 16:05:00,90.1,75.8,29.75,East,92,3.7,5.8,63,0.00,CLR,SKC,0.00,WeatherDisplay:10.37,2013-09-08 21:05:00,
2013-09-08 16:10:00,90.3,75.5,29.75,NE,54,5.5,8.1,62,0.00,CLR,SKC,0.00,WeatherDisplay:10.37,2013-09-08 21:10:00,
2013-09-08 16:15:00,90.2,74.9,29.75,East,98,6.0,10.0,61,0.00,CLR,SKC,0.00,WeatherDisplay:10.37,2013-09-08 21:15:00,
2013-09-08 16:20:00,90.6,75.8,29.75,ESE,112,3.6,8.1,62,0.00,CLR,SKC,0.00,WeatherDisplay:10.37,2013-09-08 21:20:00,
2013-09-08 16:25:00,90.8,76.0,29.75,East,99,5.2,5.2,62,0.00,CLR,SKC,0.00,WeatherDisplay:10.37,2013-09-08 21:25:00,
2013-09-08 16:30:00,90.5,75.7,29.75,ESE,104,3.5,4.0,62,0.00,CLR,SKC,0.00,WeatherDisplay:10.37,2013-09-08 21:30:00,
2013-09-08 16:35:00,90.5,75.7,29.75,NE,56,4.9,4.9,62,0.00,CLR,SKC,0.00,WeatherDisplay:10.37,2013-09-08 21:35:00,
2013-09-08 16:40:00,90.6,75.8,29.74,ENE,57,3.7,6.9,62,0.00,CLR,SKC,0.00,WeatherDisplay:10.37,2013-09-08 21:40:00,
2013-09-08 16:45:00,90.5,75.7,29.74,SE,141,4.4,8.1,62,0.00,CLR,SKC,0.00,WeatherDisplay:10.37,2013-09-08 21:45:00,
2013-09-08 16:50:00,90.4,75.6,29.74,NE,41,2.2,8.1,62,0.00,CLR,SKC,0.00,WeatherDisplay:10.37,2013-09-08 21:50:00,
2013-09-08 16:55:00,90.6,76.3,29.74,ESE,103,2.4,4.0,63,0.00,CLR,SKC,0.00,WeatherDisplay:10.37,2013-09-08 21:55:00,
2013-09-08 17:00:00,90.7,75.9,29.74,East,81,4.5,8.1,62,0.00,CLR,SKC,0.00,WeatherDisplay:10.37,2013-09-08 22:00:00,
2013-09-08 17:05:00,90.5,75.7,29.73,ESE,103,6.2,8.1,62,0.00,CLR,SKC,0.00,WeatherDisplay:10.37,2013-09-08 22:05:00,
2013-09-08 17:10:00,90.4,76.1,29.73,ESE,113,2.1,3.5,63,0.00,CLR,SKC,0.00,WeatherDisplay:10.37,2013-09-08 22:10:00,
2013-09-08 17:15:00,90.8,76.0,29.73,ESE,121,3.6,5.8,62,0.00,CLR,SKC,0.00,WeatherDisplay:10.37,2013-09-08 22:15:00,
2013-09-08 17:20:00,90.8,76.0,29.73,ESE,103,4.8,8.1,62,0.00,CLR,SKC,0.00,WeatherDisplay:10.37,2013-09-08 22:20:00,
2013-09-08 17:25:00,90.7,75.9,29.73,SE,138,2.9,6.9,62,0.00,CLR,SKC,0.00,WeatherDisplay:10.37,2013-09-08 22:25:00,
2013-09-08 17:30:00,91.2,74.9,29.73,South,181,3.9,6.9,59,0.00,CLR,SKC,0.00,WeatherDisplay:10.37,2013-09-08 22:30:00,
2013-09-08 17:35:00,91.5,74.1,29.73,SE,138,3.4,4.6,57,0.00,CLR,SKC,0.00,WeatherDisplay:10.37,2013-09-08 22:35:00,
2013-09-08 17:40:00,91.5,73.6,29.73,SE,143,3.3,6.9,56,0.00,CLR,SKC,0.00,WeatherDisplay:10.37,2013-09-08 22:40:00,
2013-09-08 17:45:00,91.5,73.1,29.73,SSE,148,2.8,6.9,55,0.00,CLR,SKC,0.00,WeatherDisplay:10.37,2013-09-08 22:45:00,
2013-09-08 17:50:00,91.6,72.6,29.73,SE,127,3.7,3.7,54,0.00,CLR,SKC,0.00,WeatherDisplay:10.37,2013-09-08 22:50:00,
2013-09-08 17:55:00,91.3,72.3,29.73,SSE,147,5.0,6.0,54,0.00,CLR,SKC,0.00,WeatherDisplay:10.37,2013-09-08 22:55:00,
2013-09-08 18:00:00,91.2,72.2,29.73,SE,127,2.6,3.5,54,0.00,CLR,SKC,0.00,WeatherDisplay:10.37,2013-09-08 23:00:00,
2013-09-08 18:05:00,91.3,73.4,29.73,ESE,122,1.9,3.5,56,0.00,CLR,SKC,0.00,WeatherDisplay:10.37,2013-09-08 23:05:00,
2013-09-08 18:10:00,91.6,73.1,29.73,SE,142,2.0,3.5,55,0.00,CLR,SKC,0.00,WeatherDisplay:10.37,2013-09-08 23:10:00,
2013-09-08 18:15:00,91.4,73.0,29.73,SSW,204,2.3,3.5,55,0.00,CLR,SKC,0.00,WeatherDisplay:10.37,2013-09-08 23:15:00,
2013-09-08 18:20:00,91.1,73.2,29.73,SE,127,3.5,4.6,56,0.00,CLR,SKC,0.00,WeatherDisplay:10.37,2013-09-08 23:20:00,
2013-09-08 18:25:00,90.9,73.6,29.73,SE,133,1.9,3.5,57,0.00,CLR,SKC,0.00,WeatherDisplay:10.37,2013-09-08 23:25:00,
2013-09-08 18:30:00,90.7,73.4,29.73,East,90,5.3,6.9,57,0.00,CLR,SKC,0.00,WeatherDisplay:10.37,2013-09-08 23:30:00,
2013-09-08 18:35:00,90.5,73.7,29.73,SW,229,1.6,4.6,58,0.00,CLR,SKC,0.00,WeatherDisplay:10.37,2013-09-08 23:35:00,
2013-09-08 18:40:00,90.4,73.6,29.73,ESE,120,1.7,2.3,58,0.00,CLR,SKC,0.00,WeatherDisplay:10.37,2013-09-08 23:40:00,
2013-09-08 18:45:00,90.2,73.4,29.72,SE,136,2.4,3.5,58,0.00,CLR,SKC,0.00,WeatherDisplay:10.37,2013-09-08 23:45:00,
2013-09-08 18:50:00,90.0,73.2,29.72,SE,145,5.4,8.1,58,0.00,CLR,SKC,0.00,WeatherDisplay:10.37,2013-09-08 23:50:00,
2013-09-08 18:55:00,89.8,73.6,29.72,SE,143,3.7,6.9,59,0.00,CLR,SKC,0.00,WeatherDisplay:10.37,2013-09-08 23:55:00,
2013-09-08 19:00:00,89.6,73.4,29.72,South,176,3.3,5.8,59,0.00,CLR,SKC,0.00,WeatherDisplay:10.37,2013-09-09 00:00:00,
2013-09-08 19:05:00,89.6,73.4,29.72,SSE,156,2.4,3.5,59,0.00,CLR,SKC,0.00,WeatherDisplay:10.37,2013-09-09 00:05:00,
2013-09-08 19:10:00,89.4,73.2,29.72,SSE,156,1.7,4.0,59,0.00,CLR,SKC,0.00,WeatherDisplay:10.37,2013-09-09 00:10:00,
2013-09-08 19:15:00,89.1,72.9,29.72,ESE,115,0.8,2.3,59,0.00,CLR,SKC,0.00,WeatherDisplay:10.37,2013-09-09 00:15:00,
2013-09-08 19:20:00,88.8,72.6,29.72,SE,136,0.0,0.0,59,0.00,CLR,SKC,0.00,WeatherDisplay:10.37,2013-09-09 00:20:00,
2013-09-08 19:25:00,88.5,72.3,29.72,SE,124,2.4,3.5,59,0.00,CLR,SKC,0.00,WeatherDisplay:10.37,2013-09-09 00:25:00,
2013-09-08 19:30:00,88.2,72.6,29.72,SSE,162,1.0,2.3,60,0.00,CLR,SKC,0.00,WeatherDisplay:10.37,2013-09-09 00:30:00,
2013-09-08 19:35:00,87.8,72.2,29.71,SSE,152,1.3,3.5,60,0.00,CLR,SKC,0.00,WeatherDisplay:10.37,2013-09-09 00:35:00,
2013-09-08 19:40:00,87.5,72.4,29.72,SSE,162,0.0,0.0,61,0.00,CLR,SKC,0.00,WeatherDisplay:10.37,2013-09-09 00:40:00,
2013-09-08 19:46:00,87.3,72.2,29.71,SE,127,0.2,2.3,61,0.00,CLR,SKC,0.00,WeatherDisplay:10.37,2013-09-09 00:46:00,
2013-09-08 19:51:00,87.1,72.5,29.72,ESE,108,0.3,1.1,62,0.00,CLR,SKC,0.00,WeatherDisplay:10.37,2013-09-09 00:51:00,
2013-09-08 19:56:00,87.0,72.4,29.72,ESE,121,1.1,2.3,62,0.00,CLR,SKC,0.00,WeatherDisplay:10.37,2013-09-09 00:56:00,
2013-09-08 20:01:00,86.8,72.7,29.72,ESE,122,1.5,2.3,63,0.00,CLR,SKC,0.00,WeatherDisplay:10.37,2013-09-09 01:01:00,
2013-09-08 20:06:00,86.6,73.0,29.72,SE,128,0.5,1.1,64,0.00,CLR,SKC,0.00,WeatherDisplay:10.37,2013-09-09 01:06:00,
2013-09-08 20:11:00,86.3,73.1,29.72,ESE,115,0.5,2.3,65,0.00,CLR,SKC,0.00,WeatherDisplay:10.37,2013-09-09 01:11:00,
2013-09-08 20:16:00,86.0,73.3,29.72,ESE,108,1.7,2.3,66,0.00,CLR,SKC,0.00,WeatherDisplay:10.37,2013-09-09 01:16:00,
2013-09-08 20:21:00,85.8,73.6,29.72,ESE,112,1.4,2.3,67,0.00,CLR,SKC,0.00,WeatherDisplay:10.37,2013-09-09 01:21:00,
2013-09-08 20:26:00,85.6,73.8,29.72,SE,135,1.9,2.3,68,0.00,CLR,SKC,0.00,WeatherDisplay:10.37,2013-09-09 01:26:00,
2013-09-08 20:31:00,85.4,73.6,29.72,ESE,119,0.6,3.0,68,0.00,CLR,SKC,0.00,WeatherDisplay:10.37,2013-09-09 01:31:00,
2013-09-08 20:36:00,85.1,73.8,29.72,SE,127,0.5,1.1,69,0.00,CLR,SKC,0.00,WeatherDisplay:10.37,2013-09-09 01:36:00,
2013-09-08 20:41:00,84.9,73.6,29.72,ESE,110,0.9,2.3,69,0.00,CLR,SKC,0.00,WeatherDisplay:10.37,2013-09-09 01:41:00,
2013-09-08 20:46:00,84.8,73.9,29.72,SE,127,1.4,2.3,70,0.00,CLR,SKC,0.00,WeatherDisplay:10.37,2013-09-09 01:46:00,
2013-09-08 20:51:00,84.6,73.7,29.72,ESE,108,2.2,3.5,70,0.00,CLR,SKC,0.00,WeatherDisplay:10.37,2013-09-09 01:51:00,
2013-09-08 20:56:00,84.4,74.0,29.72,ESE,117,0.1,1.1,71,0.00,CLR,SKC,0.00,WeatherDisplay:10.37,2013-09-09 01:56:00,
2013-09-08 21:01:00,84.3,73.9,29.72,ESE,118,1.3,2.3,71,0.00,CLR,SKC,0.00,WeatherDisplay:10.37,2013-09-09 02:01:00,
2013-09-08 21:06:00,84.1,73.7,29.72,ESE,108,0.6,1.1,71,0.00,CLR,SKC,0.00,WeatherDisplay:10.37,2013-09-09 02:06:00,
2013-09-08 21:11:00,83.9,73.9,29.72,ESE,110,0.7,2.3,72,0.00,CLR,SKC,0.00,WeatherDisplay:10.37,2013-09-09 02:11:00,
2013-09-08 21:16:00,83.8,73.8,29.72,ESE,104,1.9,3.5,72,0.00,CLR,SKC,0.00,WeatherDisplay:10.37,2013-09-09 02:16:00,
2013-09-08 21:21:00,83.7,73.7,29.72,ESE,110,0.5,2.3,72,0.00,CLR,SKC,0.00,WeatherDisplay:10.37,2013-09-09 02:21:00,
2013-09-08 21:26:00,83.6,73.6,29.72,ESE,114,2.2,3.5,72,0.00,CLR,SKC,0.00,WeatherDisplay:10.37,2013-09-09 02:26:00,
2013-09-08 21:31:00,83.5,73.5,29.72,ESE,111,1.7,3.5,72,0.00,CLR,SKC,0.00,WeatherDisplay:10.37,2013-09-09 02:31:00,
2013-09-08 21:36:00,83.4,73.4,29.72,East,98,1.1,3.5,72,0.00,CLR,SKC,0.00,WeatherDisplay:10.37,2013-09-09 02:36:00,
2013-09-08 21:41:00,83.3,73.3,29.72,ESE,110,1.6,3.5,72,0.00,CLR,SKC,0.00,WeatherDisplay:10.37,2013-09-09 02:41:00,
2013-09-08 21:46:00,83.2,73.6,29.72,SE,125,1.0,3.5,73,0.00,CLR,SKC,0.00,WeatherDisplay:10.37,2013-09-09 02:46:00,
2013-09-08 21:51:00,83.0,73.4,29.72,ESE,109,1.0,2.3,73,0.00,CLR,SKC,0.00,WeatherDisplay:10.37,2013-09-09 02:51:00,
2013-09-08 21:56:00,82.9,73.4,29.72,SE,127,2.7,3.5,73,0.00,CLR,SKC,0.00,WeatherDisplay:10.37,2013-09-09 02:56:00,
2013-09-08 22:01:00,82.8,73.7,29.72,SE,143,1.9,2.3,74,0.00,CLR,SKC,0.00,WeatherDisplay:10.37,2013-09-09 03:01:00,
2013-09-08 22:06:00,82.7,73.6,29.71,SE,139,1.8,4.6,74,0.00,CLR,SKC,0.00,WeatherDisplay:10.37,2013-09-09 03:06:00,
2013-09-08 22:11:00,82.5,73.4,29.71,ESE,115,1.5,3.5,74,0.00,CLR,SKC,0.00,WeatherDisplay:10.37,2013-09-09 03:11:00,
2013-09-08 22:16:00,82.3,73.6,29.71,SE,139,1.4,3.5,75,0.00,CLR,SKC,0.00,WeatherDisplay:10.37,2013-09-09 03:16:00,
2013-09-08 22:21:00,82.2,73.5,29.72,SE,146,1.4,4.6,75,0.00,CLR,SKC,0.00,WeatherDisplay:10.37,2013-09-09 03:21:00,
2013-09-08 22:26:00,82.2,73.5,29.72,ESE,115,1.1,1.1,75,0.00,CLR,SKC,0.00,WeatherDisplay:10.37,2013-09-09 03:26:00,
2013-09-08 22:31:00,82.1,73.4,29.72,ESE,111,1.3,3.5,75,0.00,CLR,SKC,0.00,WeatherDisplay:10.37,2013-09-09 03:31:00,
2013-09-08 22:36:00,82.1,73.4,29.72,SSE,154,0.9,2.3,75,0.00,CLR,SKC,0.00,WeatherDisplay:10.37,2013-09-09 03:36:00,
2013-09-08 22:41:00,82.0,73.3,29.72,SE,143,1.5,2.3,75,0.00,CLR,SKC,0.00,WeatherDisplay:10.37,2013-09-09 03:41:00,
2013-09-08 22:46:00,81.8,73.5,29.72,SE,128,1.6,3.5,76,0.00,CLR,SKC,0.00,WeatherDisplay:10.37,2013-09-09 03:46:00,
2013-09-08 22:51:00,81.7,73.4,29.72,SE,144,0.9,2.3,76,0.00,CLR,SKC,0.00,WeatherDisplay:10.37,2013-09-09 03:51:00,
2013-09-08 22:56:00,81.7,73.0,29.72,ESE,120,1.9,3.5,75,0.00,CLR,SKC,0.00,WeatherDisplay:10.37,2013-09-09 03:56:00,
2013-09-08 23:01:00,81.7,73.0,29.72,SE,143,1.9,3.5,75,0.00,CLR,SKC,0.00,WeatherDisplay:10.37,2013-09-09 04:01:00,
2013-09-08 23:06:00,81.7,73.0,29.72,South,173,1.8,3.5,75,0.00,CLR,SKC,0.00,WeatherDisplay:10.37,2013-09-09 04:06:00,
2013-09-08 23:12:00,82.0,73.3,29.72,SSE,150,4.7,6.0,75,0.00,CLR,SKC,0.00,WeatherDisplay:10.37,2013-09-09 04:12:00,
2013-09-08 23:17:00,82.1,73.0,29.72,South,188,1.9,3.5,74,0.00,CLR,SKC,0.00,WeatherDisplay:10.37,2013-09-09 04:17:00,
2013-09-08 23:22:00,82.0,72.9,29.72,SE,132,2.3,6.9,74,0.00,CLR,SKC,0.00,WeatherDisplay:10.37,2013-09-09 04:22:00,
2013-09-08 23:27:00,82.1,73.0,29.72,South,177,3.6,6.9,74,0.00,CLR,SKC,0.00,WeatherDisplay:10.37,2013-09-09 04:27:00,
2013-09-08 23:32:00,81.9,72.8,29.72,ESE,121,2.7,4.6,74,0.00,CLR,SKC,0.00,WeatherDisplay:10.37,2013-09-09 04:32:00,
2013-09-08 23:37:00,81.9,72.8,29.72,SE,129,1.2,4.6,74,0.00,CLR,SKC,0.00,WeatherDisplay:10.37,2013-09-09 04:37:00,
2013-09-08 23:42:00,81.7,73.0,29.72,SE,125,1.2,4.6,75,0.00,CLR,SKC,0.00,WeatherDisplay:10.37,2013-09-09 04:42:00,
2013-09-08 23:47:00,81.7,73.0,29.72,ESE,115,5.4,9.2,75,0.00,CLR,SKC,0.00,WeatherDisplay:10.37,2013-09-09 04:47:00,
2013-09-08 23:52:00,81.6,72.9,29.72,SSE,149,3.5,3.5,75,0.00,CLR,SKC,0.00,WeatherDisplay:10.37,2013-09-09 04:52:00,
2013-09-08 23:57:00,81.5,72.8,29.72,ESE,118,2.3,4.6,75,0.00,CLR,SKC,0.00,WeatherDisplay:10.37,2013-09-09 04:57:00,